Location: Pallagorio
(39.3000°N, 16.9000°E)
Time: 01:38:48
(UTC+00:00)

Cosmos 1689 Rocket - Pass Details

Date: 24 January 2021
Orbit: 352 x 366 km, 97.5° (Epoch: 08 March)

Event Time Altitude Azimuth Distance (km) Brightness Sun altitude
Exits shadow 17:18:05 24° 31° (NNE) 784 3.2 -14.4°
Maximum altitude 17:19:31 55° 100° (E) 435 1.9 -14.7°
Drops below altitude 10° 17:22:16 10° 180° (S) 1,319 4.9 -15.2°
Sets 17:24:12 0° 185° (S) 2,156 6.1 -15.6°
